Wetterdaten: Montag, 17.06.2013
Datum Zeit Temperatur Luftfeuchte Luftdruck Regen Wind Richtung Richtung Sonnenschein ET UV Solar Taupunkt Windchill Windben
17.06.2013 00:00 13,4 C 79 % 1015,4 hPa 0,0 l/m 0,0 km/h (0 Bft) NO 53 0 min 0,000 mm 0,0 UV-I 0 W/m 9,8 C 13,4 C 0,0 km/h (0 Bft)
17.06.2013 00:05 13,4 C 79 % 1015,5 hPa 0,0 l/m 0,0 km/h (0 Bft) NO 53 0 min 0,000 mm 0,0 UV-I 0 W/m 9,8 C 13,4 C 0,0 km/h (0 Bft)
17.06.2013 00:10 13,3 C 80 % 1015,5 hPa 0,0 l/m 0,0 km/h (0 Bft) NO 53 0 min 0,000 mm 0,0 UV-I 0 W/m 9,9 C 13,3 C 0,0 km/h (0 Bft)
17.06.2013 00:15 13,2 C 80 % 1015,6 hPa 0,0 l/m 0,0 km/h (0 Bft) NO 53 0 min 0,000 mm 0,0 UV-I 0 W/m 9,8 C 13,2 C 0,0 km/h (0 Bft)
17.06.2013 00:20 13,1 C 80 % 1015,6 hPa 0,0 l/m 0,0 km/h (0 Bft) NO 53 0 min 0,000 mm 0,0 UV-I 0 W/m 9,7 C 13,1 C 0,0 km/h (0 Bft)
17.06.2013 00:25 12,8 C 81 % 1015,7 hPa 0,0 l/m 0,0 km/h (0 Bft) NO 53 0 min 0,000 mm 0,0 UV-I 0 W/m 9,6 C 12,8 C 1,6 km/h (1 Bft)
17.06.2013 00:30 12,7 C 81 % 1015,6 hPa 0,0 l/m 0,0 km/h (0 Bft) NO 53 0 min 0,000 mm 0,0 UV-I 0 W/m 9,5 C 12,7 C 0,0 km/h (0 Bft)
17.06.2013 00:35 12,7 C 82 % 1015,6 hPa 0,0 l/m 0,0 km/h (0 Bft) NO 53 0 min 0,000 mm 0,0 UV-I 0 W/m 9,7 C 12,7 C 0,0 km/h (0 Bft)
17.06.2013 00:40 12,6 C 82 % 1015,6 hPa 0,0 l/m 0,0 km/h (0 Bft) NO 53 0 min 0,000 mm 0,0 UV-I 0 W/m 9,6 C 12,6 C 0,0 km/h (0 Bft)
17.06.2013 00:45 12,5 C 82 % 1015,8 hPa 0,0 l/m 0,0 km/h (0 Bft) NO 53 0 min 0,000 mm 0,0 UV-I 0 W/m 9,5 C 12,5 C 0,0 km/h (0 Bft)
17.06.2013 00:50 12,4 C 82 % 1015,8 hPa 0,0 l/m 0,0 km/h (0 Bft) NO 53 0 min 0,000 mm 0,0 UV-I 0 W/m 9,4 C 12,4 C 0,0 km/h (0 Bft)
17.06.2013 00:55 12,3 C 83 % 1016,0 hPa 0,0 l/m 0,0 km/h (0 Bft) NO 53 0 min 0,000 mm 0,0 UV-I 0 W/m 9,5 C 12,3 C 0,0 km/h (0 Bft)
17.06.2013 01:00 12,2 C 83 % 1016,0 hPa 0,0 l/m 0,0 km/h (0 Bft) NO 53 0 min 0,000 mm 0,0 UV-I 0 W/m 9,4 C 12,2 C 0,0 km/h (0 Bft)
17.06.2013 01:05 12,1 C 83 % 1015,9 hPa 0,0 l/m 0,0 km/h (0 Bft) NO 53 0 min 0,025 mm 0,0 UV-I 0 W/m 9,3 C 12,1 C 0,0 km/h (0 Bft)
17.06.2013 01:10 12,1 C 83 % 1015,8 hPa 0,0 l/m 0,0 km/h (0 Bft) NO 53 0 min 0,000 mm 0,0 UV-I 0 W/m 9,3 C 12,1 C 0,0 km/h (0 Bft)
17.06.2013 01:15 11,9 C 83 % 1015,8 hPa 0,0 l/m 0,0 km/h (0 Bft) NO 53 0 min 0,000 mm 0,0 UV-I 0 W/m 9,1 C 11,9 C 0,0 km/h (0 Bft)
17.06.2013 01:20 11,9 C 83 % 1015,8 hPa 0,0 l/m 0,0 km/h (0 Bft) NO 53 0 min 0,000 mm 0,0 UV-I 0 W/m 9,1 C 11,9 C 0,0 km/h (0 Bft)
17.06.2013 01:25 11,7 C 84 % 1015,8 hPa 0,0 l/m 0,0 km/h (0 Bft) NO 53 0 min 0,000 mm 0,0 UV-I 0 W/m 9,1 C 11,7 C 0,0 km/h (0 Bft)
17.06.2013 01:30 11,6 C 84 % 1015,7 hPa 0,0 l/m 0,0 km/h (0 Bft) NO 53 0 min 0,000 mm 0,0 UV-I 0 W/m 9,0 C 11,6 C 0,0 km/h (0 Bft)
17.06.2013 01:35 11,4 C 84 % 1015,7 hPa 0,0 l/m 0,0 km/h (0 Bft) NO 53 0 min 0,000 mm 0,0 UV-I 0 W/m 8,8 C 11,4 C 1,6 km/h (1 Bft)
17.06.2013 01:40 11,3 C 85 % 1015,6 hPa 0,0 l/m 0,0 km/h (0 Bft) NO 53 0 min 0,000 mm 0,0 UV-I 0 W/m 8,9 C 11,3 C 1,6 km/h (1 Bft)
17.06.2013 01:45 11,1 C 85 % 1015,7 hPa 0,0 l/m 0,0 km/h (0 Bft) NO 53 0 min 0,000 mm 0,0 UV-I 0 W/m 8,7 C 11,1 C 1,6 km/h (1 Bft)
17.06.2013 01:50 11,1 C 86 % 1015,6 hPa 0,0 l/m 0,0 km/h (0 Bft) NO 53 0 min 0,000 mm 0,0 UV-I 0 W/m 8,8 C 11,1 C 0,0 km/h (0 Bft)
17.06.2013 01:55 11,0 C 86 % 1015,6 hPa 0,0 l/m 0,0 km/h (0 Bft) NO 53 0 min 0,000 mm 0,0 UV-I 0 W/m 8,7 C 11,0 C 0,0 km/h (0 Bft)
17.06.2013 02:00 10,9 C 86 % 1015,8 hPa 0,0 l/m 0,0 km/h (0 Bft) NO 53 0 min 0,000 mm 0,0 UV-I 0 W/m 8,7 C 10,9 C 0,0 km/h (0 Bft)
17.06.2013 02:05 10,8 C 86 % 1015,9 hPa 0,0 l/m 0,0 km/h (0 Bft) NO 53 0 min 0,000 mm 0,0 UV-I 0 W/m 8,6 C 10,8 C 1,6 km/h (1 Bft)
17.06.2013 02:10 10,8 C 87 % 1016,0 hPa 0,0 l/m 0,0 km/h (0 Bft) NO 53 0 min 0,000 mm 0,0 UV-I 0 W/m 8,7 C 10,8 C 1,6 km/h (1 Bft)
17.06.2013 02:15 10,7 C 87 % 1015,9 hPa 0,0 l/m 0,0 km/h (0 Bft) NO 53 0 min 0,000 mm 0,0 UV-I 0 W/m 8,6 C 10,7 C 1,6 km/h (1 Bft)
17.06.2013 02:20 10,6 C 87 % 1016,0 hPa 0,0 l/m 0,0 km/h (0 Bft) NO 53 0 min 0,000 mm 0,0 UV-I 0 W/m 8,5 C 10,6 C 0,0 km/h (0 Bft)
17.06.2013 02:25 10,6 C 87 % 1016,0 hPa 0,0 l/m 0,0 km/h (0 Bft) NO 53 0 min 0,000 mm 0,0 UV-I 0 W/m 8,5 C 10,6 C 0,0 km/h (0 Bft)
17.06.2013 02:30 10,5 C 87 % 1016,1 hPa 0,0 l/m 0,0 km/h (0 Bft) NO 53 0 min 0,000 mm 0,0 UV-I 0 W/m 8,4 C 10,5 C 0,0 km/h (0 Bft)
17.06.2013 02:35 10,4 C 87 % 1016,0 hPa 0,0 l/m 0,0 km/h (0 Bft) NO 53 0 min 0,000 mm 0,0 UV-I 0 W/m 8,3 C 10,4 C 0,0 km/h (0 Bft)
17.06.2013 02:40 10,3 C 87 % 1015,9 hPa 0,0 l/m 0,0 km/h (0 Bft) NO 53 0 min 0,000 mm 0,0 UV-I 0 W/m 8,2 C 10,3 C 0,0 km/h (0 Bft)
17.06.2013 02:45 10,3 C 88 % 1015,9 hPa 0,0 l/m 0,0 km/h (0 Bft) NO 53 0 min 0,000 mm 0,0 UV-I 0 W/m 8,4 C 10,3 C 0,0 km/h (0 Bft)
17.06.2013 02:50 10,3 C 88 % 1015,9 hPa 0,0 l/m 0,0 km/h (0 Bft) NO 53 0 min 0,000 mm 0,0 UV-I 0 W/m 8,4 C 10,3 C 0,0 km/h (0 Bft)
17.06.2013 02:55 10,2 C 88 % 1015,9 hPa 0,0 l/m 0,0 km/h (0 Bft) NO 53 0 min 0,000 mm 0,0 UV-I 0 W/m 8,3 C 10,2 C 0,0 km/h (0 Bft)
17.06.2013 03:00 10,2 C 88 % 1016,0 hPa 0,0 l/m 0,0 km/h (0 Bft) NO 53 0 min 0,000 mm 0,0 UV-I 0 W/m 8,3 C 10,2 C 0,0 km/h (0 Bft)
17.06.2013 03:05 10,2 C 88 % 1015,9 hPa 0,0 l/m 0,0 km/h (0 Bft) NO 53 0 min 0,000 mm 0,0 UV-I 0 W/m 8,3 C 10,2 C 0,0 km/h (0 Bft)
17.06.2013 03:10 10,1 C 88 % 1016,0 hPa 0,0 l/m 0,0 km/h (0 Bft) NO 53 0 min 0,000 mm 0,0 UV-I 0 W/m 8,2 C 10,1 C 0,0 km/h (0 Bft)
17.06.2013 03:15 10,1 C 88 % 1015,8 hPa 0,0 l/m 0,0 km/h (0 Bft) NO 53 0 min 0,000 mm 0,0 UV-I 0 W/m 8,2 C 10,1 C 0,0 km/h (0 Bft)
17.06.2013 03:20 10,0 C 88 % 1015,8 hPa 0,0 l/m 0,0 km/h (0 Bft) NO 53 0 min 0,000 mm 0,0 UV-I 0 W/m 8,1 C 10,0 C 0,0 km/h (0 Bft)
17.06.2013 03:25 10,0 C 88 % 1015,7 hPa 0,0 l/m 0,0 km/h (0 Bft) NO 53 0 min 0,000 mm 0,0 UV-I 0 W/m 8,1 C 10,0 C 0,0 km/h (0 Bft)
17.06.2013 03:30 9,9 C 89 % 1015,8 hPa 0,0 l/m 0,0 km/h (0 Bft) NO 53 0 min 0,000 mm 0,0 UV-I 0 W/m 8,2 C 9,9 C 0,0 km/h (0 Bft)
17.06.2013 03:35 9,9 C 89 % 1015,7 hPa 0,0 l/m 0,0 km/h (0 Bft) NO 53 0 min 0,000 mm 0,0 UV-I 0 W/m 8,2 C 9,9 C 0,0 km/h (0 Bft)
17.06.2013 03:40 9,8 C 89 % 1015,7 hPa 0,0 l/m 0,0 km/h (0 Bft) NO 53 0 min 0,000 mm 0,0 UV-I 0 W/m 8,1 C 9,8 C 0,0 km/h (0 Bft)
17.06.2013 03:45 9,8 C 89 % 1015,7 hPa 0,0 l/m 0,0 km/h (0 Bft) NO 53 0 min 0,000 mm 0,0 UV-I 0 W/m 8,1 C 9,8 C 0,0 km/h (0 Bft)
17.06.2013 03:50 9,8 C 89 % 1015,7 hPa 0,0 l/m 0,0 km/h (0 Bft) NO 53 0 min 0,000 mm 0,0 UV-I 0 W/m 8,1 C 9,8 C 0,0 km/h (0 Bft)
17.06.2013 03:55 9,8 C 90 % 1015,8 hPa 0,0 l/m 0,0 km/h (0 Bft) NO 53 0 min 0,000 mm 0,0 UV-I 0 W/m 8,2 C 9,8 C 0,0 km/h (0 Bft)
17.06.2013 04:00 9,8 C 90 % 1015,9 hPa 0,0 l/m 0,0 km/h (0 Bft) NO 53 0 min 0,000 mm 0,0 UV-I 0 W/m 8,2 C 9,8 C 0,0 km/h (0 Bft)
17.06.2013 04:05 9,8 C 90 % 1015,9 hPa 0,0 l/m 0,0 km/h (0 Bft) NO 53 0 min 0,000 mm 0,0 UV-I 0 W/m 8,2 C 9,8 C 0,0 km/h (0 Bft)
17.06.2013 04:10 9,7 C 90 % 1015,9 hPa 0,0 l/m 0,0 km/h (0 Bft) NO 53 0 min 0,000 mm 0,0 UV-I 0 W/m 8,1 C 9,7 C 0,0 km/h (0 Bft)
17.06.2013 04:15 9,7 C 90 % 1015,9 hPa 0,0 l/m 0,0 km/h (0 Bft) NO 53 0 min 0,000 mm 0,0 UV-I 0 W/m 8,1 C 9,7 C 1,6 km/h (1 Bft)
17.06.2013 04:20 9,7 C 90 % 1015,6 hPa 0,0 l/m 0,0 km/h (0 Bft) NO 53 0 min 0,000 mm 0,0 UV-I 0 W/m 8,1 C 9,7 C 1,6 km/h (1 Bft)
17.06.2013 04:25 9,7 C 90 % 1015,5 hPa 0,0 l/m 0,0 km/h (0 Bft) NO 53 0 min 0,000 mm 0,0 UV-I 0 W/m 8,1 C 9,7 C 0,0 km/h (0 Bft)
17.06.2013 04:30 9,7 C 90 % 1015,5 hPa 0,0 l/m 0,0 km/h (0 Bft) NO 53 0 min 0,000 mm 0,0 UV-I 0 W/m 8,1 C 9,7 C 0,0 km/h (0 Bft)
17.06.2013 04:35 9,7 C 90 % 1015,4 hPa 0,0 l/m 0,0 km/h (0 Bft) NO 53 0 min 0,000 mm 0,0 UV-I 0 W/m 8,1 C 9,7 C 1,6 km/h (1 Bft)
17.06.2013 04:40 9,6 C 90 % 1015,3 hPa 0,0 l/m 0,0 km/h (0 Bft) NO 53 0 min 0,000 mm 0,0 UV-I 0 W/m 8,0 C 9,6 C 0,0 km/h (0 Bft)
17.06.2013 04:45 9,5 C 90 % 1015,3 hPa 0,0 l/m 0,0 km/h (0 Bft) NO 53 0 min 0,000 mm 0,0 UV-I 0 W/m 7,9 C 9,5 C 0,0 km/h (0 Bft)
17.06.2013 04:50 9,5 C 90 % 1015,2 hPa 0,0 l/m 0,0 km/h (0 Bft) NO 53 0 min 0,000 mm 0,0 UV-I 0 W/m 7,9 C 9,5 C 0,0 km/h (0 Bft)
17.06.2013 04:55 9,4 C 90 % 1015,0 hPa 0,0 l/m 0,0 km/h (0 Bft) NO 53 0 min 0,000 mm 0,0 UV-I 0 W/m 7,8 C 9,4 C 0,0 km/h (0 Bft)
17.06.2013 05:00 9,4 C 90 % 1014,9 hPa 0,0 l/m 0,0 km/h (0 Bft) NO 53 0 min 0,000 mm 0,0 UV-I 0 W/m 7,8 C 9,4 C 0,0 km/h (0 Bft)
17.06.2013 05:05 9,3 C 90 % 1014,9 hPa 0,0 l/m 0,0 km/h (0 Bft) NO 53 0 min 0,000 mm 0,0 UV-I 0 W/m 7,7 C 9,3 C 0,0 km/h (0 Bft)
17.06.2013 05:10 9,3 C 90 % 1014,9 hPa 0,0 l/m 0,0 km/h (0 Bft) NO 53 0 min 0,000 mm 0,0 UV-I 0 W/m 7,7 C 9,3 C 0,0 km/h (0 Bft)
17.06.2013 05:15 9,3 C 90 % 1014,8 hPa 0,0 l/m 0,0 km/h (0 Bft) NO 53 0 min 0,000 mm 0,0 UV-I 0 W/m 7,7 C 9,3 C 0,0 km/h (0 Bft)
17.06.2013 05:20 9,2 C 91 % 1014,9 hPa 0,0 l/m 0,0 km/h (0 Bft) NO 53 0 min 0,000 mm 0,0 UV-I 5 W/m 7,8 C 9,2 C 0,0 km/h (0 Bft)
17.06.2013 05:25 9,2 C 91 % 1015,0 hPa 0,0 l/m 0,1 km/h (0 Bft) NO 53 0 min 0,000 mm 0,0 UV-I 5 W/m 7,8 C 9,2 C 1,6 km/h (1 Bft)
17.06.2013 05:30 9,2 C 91 % 1015,0 hPa 0,0 l/m 1,1 km/h (1 Bft) W 273 0 min 0,000 mm 0,0 UV-I 7 W/m 7,8 C 9,2 C 3,2 km/h (1 Bft)
17.06.2013 05:35 9,1 C 91 % 1015,1 hPa 0,0 l/m 0,9 km/h (0 Bft) W 273 0 min 0,000 mm 0,0 UV-I 7 W/m 7,7 C 9,1 C 4,8 km/h (1 Bft)
17.06.2013 05:40 9,1 C 92 % 1015,3 hPa 0,0 l/m 1,7 km/h (1 Bft) W-NW 293 0 min 0,000 mm 0,0 UV-I 9 W/m 7,9 C 9,1 C 4,8 km/h (1 Bft)
17.06.2013 05:45 9,1 C 92 % 1015,3 hPa 0,0 l/m 0,2 km/h (0 Bft) W-NW 293 0 min 0,000 mm 0,0 UV-I 16 W/m 7,9 C 9,1 C 1,6 km/h (1 Bft)
17.06.2013 05:50 9,2 C 92 % 1015,4 hPa 0,0 l/m 0,0 km/h (0 Bft) W-NW 293 0 min 0,000 mm 0,0 UV-I 21 W/m 8,0 C 9,2 C 1,6 km/h (1 Bft)
17.06.2013 05:55 9,2 C 92 % 1015,4 hPa 0,0 l/m 0,2 km/h (0 Bft) W-NW 293 0 min 0,000 mm 0,0 UV-I 30 W/m 8,0 C 9,2 C 3,2 km/h (1 Bft)
17.06.2013 06:00 9,3 C 92 % 1015,4 hPa 0,0 l/m 0,1 km/h (0 Bft) W-NW 293 0 min 0,000 mm 0,0 UV-I 37 W/m 8,1 C 9,3 C 1,6 km/h (1 Bft)
17.06.2013 06:05 9,4 C 92 % 1015,4 hPa 0,0 l/m 0,0 km/h (0 Bft) W-NW 293 0 min 0,000 mm 0,0 UV-I 44 W/m 8,2 C 9,4 C 0,0 km/h (0 Bft)
17.06.2013 06:10 9,6 C 92 % 1015,5 hPa 0,0 l/m 0,5 km/h (0 Bft) W-NW 293 0 min 0,000 mm 0,0 UV-I 39 W/m 8,4 C 9,6 C 3,2 km/h (1 Bft)
17.06.2013 06:15 9,7 C 92 % 1015,6 hPa 0,0 l/m 0,3 km/h (0 Bft) W-NW 293 0 min 0,000 mm 0,0 UV-I 42 W/m 8,5 C 9,7 C 1,6 km/h (1 Bft)
17.06.2013 06:20 9,8 C 92 % 1015,7 hPa 0,0 l/m 1,1 km/h (1 Bft) W-NW 294 0 min 0,000 mm 0,0 UV-I 49 W/m 8,6 C 9,8 C 4,8 km/h (1 Bft)
17.06.2013 06:25 9,9 C 92 % 1015,7 hPa 0,0 l/m 0,7 km/h (0 Bft) W-NW 294 0 min 0,000 mm 0,0 UV-I 54 W/m 8,7 C 9,9 C 4,8 km/h (1 Bft)
17.06.2013 06:30 10,0 C 91 % 1015,8 hPa 0,0 l/m 0,4 km/h (0 Bft) W-NW 294 0 min 0,000 mm 0,0 UV-I 74 W/m 8,6 C 10,0 C 3,2 km/h (1 Bft)
17.06.2013 06:35 10,1 C 91 % 1015,8 hPa 0,0 l/m 0,4 km/h (0 Bft) W-NW 294 0 min 0,000 mm 0,0 UV-I 86 W/m 8,7 C 10,1 C 3,2 km/h (1 Bft)
17.06.2013 06:40 10,3 C 92 % 1015,8 hPa 0,0 l/m 0,0 km/h (0 Bft) W-NW 294 0 min 0,000 mm 0,0 UV-I 65 W/m 9,1 C 10,3 C 0,0 km/h (0 Bft)
17.06.2013 06:45 10,7 C 91 % 1015,8 hPa 0,0 l/m 0,0 km/h (0 Bft) W-NW 294 5 min 0,000 mm 0,0 UV-I 134 W/m 9,3 C 10,7 C 0,0 km/h (0 Bft)
17.06.2013 06:50 11,1 C 91 % 1015,7 hPa 0,0 l/m 0,0 km/h (0 Bft) W-NW 294 5 min 0,000 mm 0,0 UV-I 125 W/m 9,7 C 11,1 C 0,0 km/h (0 Bft)
17.06.2013 06:55 11,5 C 89 % 1015,7 hPa 0,0 l/m 0,0 km/h (0 Bft) W-NW 294 5 min 0,000 mm 0,0 UV-I 163 W/m 9,8 C 11,5 C 0,0 km/h (0 Bft)
17.06.2013 07:00 11,8 C 87 % 1015,8 hPa 0,0 l/m 0,0 km/h (0 Bft) W-NW 294 5 min 0,000 mm 0,0 UV-I 163 W/m 9,7 C 11,8 C 0,0 km/h (0 Bft)
17.06.2013 07:05 12,0 C 86 % 1015,6 hPa 0,0 l/m 0,0 km/h (0 Bft) W-NW 294 5 min 0,051 mm 0,0 UV-I 174 W/m 9,7 C 12,0 C 0,0 km/h (0 Bft)
17.06.2013 07:10 12,3 C 86 % 1015,6 hPa 0,0 l/m 0,0 km/h (0 Bft) W-NW 294 5 min 0,000 mm 0,0 UV-I 178 W/m 10,0 C 12,3 C 0,0 km/h (0 Bft)
17.06.2013 07:15 12,4 C 84 % 1015,6 hPa 0,0 l/m 0,0 km/h (0 Bft) W-NW 294 5 min 0,000 mm 0,5 UV-I 163 W/m 9,8 C 12,4 C 0,0 km/h (0 Bft)
17.06.2013 07:20 12,7 C 84 % 1015,6 hPa 0,0 l/m 0,4 km/h (0 Bft) W-NW 294 5 min 0,000 mm 0,5 UV-I 181 W/m 10,1 C 12,7 C 3,2 km/h (1 Bft)
17.06.2013 07:25 12,6 C 83 % 1015,7 hPa 0,0 l/m 0,8 km/h (0 Bft) W-NW 293 0 min 0,000 mm 0,5 UV-I 114 W/m 9,8 C 12,6 C 4,8 km/h (1 Bft)
17.06.2013 07:30 12,4 C 84 % 1015,5 hPa 0,0 l/m 0,4 km/h (0 Bft) W-NW 293 5 min 0,000 mm 0,6 UV-I 186 W/m 9,8 C 12,4 C 3,2 km/h (1 Bft)
17.06.2013 07:35 12,3 C 85 % 1015,6 hPa 0,0 l/m 0,6 km/h (0 Bft) W-NW 290 0 min 0,000 mm 0,5 UV-I 162 W/m 9,9 C 12,3 C 3,2 km/h (1 Bft)
17.06.2013 07:40 12,3 C 85 % 1015,6 hPa 0,0 l/m 1,6 km/h (1 Bft) W-NW 289 0 min 0,000 mm 0,6 UV-I 88 W/m 9,9 C 12,3 C 4,8 km/h (1 Bft)
17.06.2013 07:45 12,3 C 86 % 1015,5 hPa 0,0 l/m 0,5 km/h (0 Bft) W-NW 289 0 min 0,000 mm 0,7 UV-I 185 W/m 10,0 C 12,3 C 3,2 km/h (1 Bft)
17.06.2013 07:50 12,7 C 86 % 1015,4 hPa 0,0 l/m 0,0 km/h (0 Bft) W-NW 289 5 min 0,000 mm 0,8 UV-I 236 W/m 10,4 C 12,7 C 0,0 km/h (0 Bft)
17.06.2013 07:55 13,1 C 84 % 1015,3 hPa 0,0 l/m 0,0 km/h (0 Bft) W-NW 289 5 min 0,000 mm 0,9 UV-I 297 W/m 10,5 C 13,1 C 0,0 km/h (0 Bft)
17.06.2013 08:00 13,3 C 83 % 1015,2 hPa 0,0 l/m 0,1 km/h (0 Bft) W-NW 289 5 min 0,000 mm 1,0 UV-I 327 W/m 10,5 C 13,3 C 1,6 km/h (1 Bft)
17.06.2013 08:05 13,9 C 81 % 1015,2 hPa 0,0 l/m 0,2 km/h (0 Bft) W-NW 289 5 min 0,102 mm 1,0 UV-I 362 W/m 10,7 C 13,9 C 1,6 km/h (1 Bft)
17.06.2013 08:10 14,6 C 79 % 1015,1 hPa 0,0 l/m 0,3 km/h (0 Bft) W-NW 287 5 min 0,000 mm 1,0 UV-I 288 W/m 11,0 C 14,6 C 3,2 km/h (1 Bft)
17.06.2013 08:15 15,3 C 76 % 1015,1 hPa 0,0 l/m 0,6 km/h (0 Bft) W-NW 287 5 min 0,000 mm 1,1 UV-I 306 W/m 11,1 C 15,3 C 4,8 km/h (1 Bft)
17.06.2013 08:20 15,9 C 75 % 1015,0 hPa 0,0 l/m 1,4 km/h (1 Bft) SO 128 5 min 0,000 mm 1,1 UV-I 316 W/m 11,5 C 15,9 C 3,2 km/h (1 Bft)
17.06.2013 08:25 16,4 C 73 % 1015,1 hPa 0,0 l/m 1,8 km/h (1 Bft) O-SO 103 5 min 0,000 mm 1,2 UV-I 378 W/m 11,5 C 16,4 C 4,8 km/h (1 Bft)
17.06.2013 08:30 16,9 C 73 % 1015,1 hPa 0,0 l/m 1,2 km/h (1 Bft) O 86 5 min 0,000 mm 1,3 UV-I 327 W/m 12,0 C 16,9 C 4,8 km/h (1 Bft)
17.06.2013 08:35 17,6 C 70 % 1015,0 hPa 0,0 l/m 1,9 km/h (1 Bft) O-NO 71 5 min 0,000 mm 1,3 UV-I 325 W/m 12,1 C 17,6 C 4,8 km/h (1 Bft)
17.06.2013 08:40 18,3 C 68 % 1015,0 hPa 0,0 l/m 1,4 km/h (1 Bft) O-NO 68 5 min 0,000 mm 1,4 UV-I 385 W/m 12,3 C 18,3 C 6,4 km/h (2 Bft)
17.06.2013 08:45 18,8 C 67 % 1015,0 hPa 0,0 l/m 2,0 km/h (1 Bft) O-NO 60 5 min 0,000 mm 1,6 UV-I 415 W/m 12,5 C 18,8 C 6,4 km/h (2 Bft)
17.06.2013 08:50 19,4 C 66 % 1015,0 hPa 0,0 l/m 2,5 km/h (1 Bft) NO 52 5 min 0,000 mm 1,6 UV-I 424 W/m 12,9 C 19,4 C 4,8 km/h (1 Bft)
17.06.2013 08:55 20,0 C 61 % 1015,0 hPa 0,0 l/m 4,6 km/h (1 Bft) NO 44 5 min 0,000 mm 1,6 UV-I 360 W/m 12,2 C 20,0 C 11,3 km/h (2 Bft)
17.06.2013 09:00 20,1 C 59 % 1015,0 hPa 0,0 l/m 4,7 km/h (1 Bft) O-SO 103 5 min 0,000 mm 1,7 UV-I 388 W/m 11,8 C 20,1 C 12,9 km/h (3 Bft)
17.06.2013 09:05 19,9 C 59 % 1015,0 hPa 0,0 l/m 5,6 km/h (1 Bft) O-SO 105 5 min 0,203 mm 1,9 UV-I 446 W/m 11,6 C 19,9 C 14,5 km/h (3 Bft)
17.06.2013 09:10 19,8 C 60 % 1015,0 hPa 0,0 l/m 5,0 km/h (1 Bft) NO 51 5 min 0,000 mm 2,1 UV-I 462 W/m 11,8 C 19,8 C 11,3 km/h (2 Bft)
17.06.2013 09:15 20,1 C 59 % 1015,0 hPa 0,0 l/m 3,0 km/h (1 Bft) O 94 5 min 0,000 mm 2,1 UV-I 473 W/m 11,8 C 20,1 C 9,7 km/h (2 Bft)
17.06.2013 09:20 20,3 C 59 % 1015,0 hPa 0,0 l/m 3,5 km/h (1 Bft) NO 39 5 min 0,000 mm 2,3 UV-I 519 W/m 12,0 C 20,3 C 8,0 km/h (2 Bft)
17.06.2013 09:25 20,8 C 57 % 1015,0 hPa 0,0 l/m 5,7 km/h (1 Bft) O 79 5 min 0,000 mm 2,2 UV-I 476 W/m 12,0 C 20,8 C 11,3 km/h (2 Bft)
17.06.2013 09:30 20,8 C 57 % 1015,0 hPa 0,0 l/m 5,2 km/h (1 Bft) O-NO 57 5 min 0,000 mm 2,2 UV-I 482 W/m 12,0 C 20,8 C 12,9 km/h (3 Bft)
17.06.2013 09:35 21,2 C 54 % 1014,9 hPa 0,0 l/m 6,8 km/h (2 Bft) NO 54 5 min 0,000 mm 2,4 UV-I 503 W/m 11,5 C 21,1 C 14,5 km/h (3 Bft)
17.06.2013 09:40 21,8 C 56 % 1014,9 hPa 0,0 l/m 4,7 km/h (1 Bft) NO 45 5 min 0,000 mm 2,2 UV-I 455 W/m 12,6 C 21,8 C 14,5 km/h (3 Bft)
17.06.2013 09:45 22,1 C 54 % 1014,8 hPa 0,0 l/m 6,0 km/h (2 Bft) NO 54 5 min 0,000 mm 2,2 UV-I 359 W/m 12,3 C 22,1 C 12,9 km/h (3 Bft)
17.06.2013 09:50 21,8 C 55 % 1014,7 hPa 0,0 l/m 4,3 km/h (1 Bft) NO 51 5 min 0,000 mm 2,6 UV-I 415 W/m 12,4 C 21,8 C 9,7 km/h (2 Bft)
17.06.2013 09:55 21,6 C 56 % 1014,6 hPa 0,0 l/m 4,4 km/h (1 Bft) O-NO 57 5 min 0,000 mm 2,8 UV-I 529 W/m 12,4 C 21,6 C 12,9 km/h (3 Bft)
17.06.2013 10:00 21,5 C 56 % 1014,6 hPa 0,0 l/m 6,1 km/h (2 Bft) O 90 5 min 0,000 mm 2,8 UV-I 454 W/m 12,3 C 21,5 C 12,9 km/h (3 Bft)
17.06.2013 10:05 21,9 C 54 % 1014,6 hPa 0,0 l/m 6,0 km/h (2 Bft) O-NO 71 5 min 0,305 mm 3,4 UV-I 643 W/m 12,2 C 21,9 C 12,9 km/h (3 Bft)
17.06.2013 10:10 22,4 C 55 % 1014,6 hPa 0,0 l/m 6,4 km/h (2 Bft) O-NO 67 5 min 0,000 mm 3,6 UV-I 663 W/m 12,9 C 22,4 C 14,5 km/h (3 Bft)
17.06.2013 10:15 22,1 C 55 % 1014,7 hPa 0,0 l/m 6,4 km/h (2 Bft) O-NO 67 5 min 0,000 mm 3,7 UV-I 657 W/m 12,6 C 22,1 C 12,9 km/h (3 Bft)
17.06.2013 10:25 23,2 C 51 % 1014,6 hPa 0,0 l/m 4,8 km/h (1 Bft) N-NO 22 10 min 0,000 mm 3,8 UV-I 659 W/m 12,5 C 23,2 C 16,1 km/h (3 Bft)
17.06.2013 10:30 23,4 C 51 % 1014,7 hPa 0,0 l/m 1,8 km/h (1 Bft) NO 44 5 min 0,000 mm 4,0 UV-I 696 W/m 12,7 C 23,4 C 4,8 km/h (1 Bft)
17.06.2013 10:35 23,1 C 51 % 1014,6 hPa 0,0 l/m 3,7 km/h (1 Bft) O-NO 67 5 min 0,000 mm 4,0 UV-I 698 W/m 12,4 C 23,1 C 11,3 km/h (2 Bft)
17.06.2013 10:40 23,8 C 51 % 1014,7 hPa 0,0 l/m 6,7 km/h (2 Bft) NO 49 5 min 0,000 mm 4,1 UV-I 696 W/m 13,0 C 23,7 C 14,5 km/h (3 Bft)
17.06.2013 10:45 24,7 C 48 % 1014,7 hPa 0,0 l/m 3,6 km/h (1 Bft) NO 40 5 min 0,000 mm 4,3 UV-I 705 W/m 12,9 C 24,7 C 12,9 km/h (3 Bft)
17.06.2013 10:50 24,1 C 49 % 1014,5 hPa 0,0 l/m 8,8 km/h (2 Bft) O 101 5 min 0,000 mm 4,4 UV-I 712 W/m 12,7 C 23,5 C 12,9 km/h (3 Bft)
17.06.2013 10:55 22,9 C 52 % 1014,4 hPa 0,0 l/m 7,9 km/h (2 Bft) O-NO 74 5 min 0,000 mm 4,5 UV-I 710 W/m 12,5 C 22,4 C 16,1 km/h (3 Bft)
17.06.2013 11:00 23,3 C 51 % 1014,2 hPa 0,0 l/m 9,3 km/h (2 Bft) O-NO 65 5 min 0,000 mm 4,7 UV-I 729 W/m 12,6 C 22,5 C 16,1 km/h (3 Bft)
17.06.2013 11:05 23,8 C 50 % 1014,3 hPa 0,0 l/m 9,6 km/h (2 Bft) NO 50 5 min 0,457 mm 4,8 UV-I 738 W/m 12,7 C 22,9 C 17,7 km/h (3 Bft)
17.06.2013 11:10 24,4 C 51 % 1014,3 hPa 0,0 l/m 5,3 km/h (1 Bft) O-NO 78 5 min 0,000 mm 4,9 UV-I 759 W/m 13,6 C 24,4 C 11,3 km/h (2 Bft)
17.06.2013 11:15 24,5 C 47 % 1014,4 hPa 0,0 l/m 10,0 km/h (2 Bft) O-NO 74 5 min 0,000 mm 5,0 UV-I 766 W/m 12,4 C 23,6 C 16,1 km/h (3 Bft)
17.06.2013 11:20 24,4 C 50 % 1014,4 hPa 0,0 l/m 8,3 km/h (2 Bft) O-SO 103 5 min 0,000 mm 5,2 UV-I 775 W/m 13,3 C 23,9 C 14,5 km/h (3 Bft)
17.06.2013 11:25 25,4 C 46 % 1014,4 hPa 0,0 l/m 7,3 km/h (2 Bft) O-NO 71 5 min 0,000 mm 5,3 UV-I 782 W/m 12,9 C 25,2 C 16,1 km/h (3 Bft)
17.06.2013 11:30 25,3 C 50 % 1014,5 hPa 0,0 l/m 6,5 km/h (2 Bft) O-NO 58 5 min 0,000 mm 5,3 UV-I 788 W/m 14,1 C 25,3 C 14,5 km/h (3 Bft)
17.06.2013 11:35 26,1 C 45 % 1014,5 hPa 0,0 l/m 8,2 km/h (2 Bft) N-NO 22 5 min 0,000 mm 5,5 UV-I 800 W/m 13,2 C 25,7 C 14,5 km/h (3 Bft)
17.06.2013 11:40 25,6 C 45 % 1014,5 hPa 0,0 l/m 7,8 km/h (2 Bft) N-NO 31 5 min 0,000 mm 5,5 UV-I 805 W/m 12,8 C 25,3 C 17,7 km/h (3 Bft)
17.06.2013 11:45 26,2 C 45 % 1014,5 hPa 0,0 l/m 10,2 km/h (2 Bft) O-NO 61 5 min 0,000 mm 5,7 UV-I 835 W/m 13,3 C 25,5 C 19,3 km/h (3 Bft)
17.06.2013 11:50 26,8 C 42 % 1014,6 hPa 0,0 l/m 6,6 km/h (2 Bft) O-NO 61 5 min 0,000 mm 5,6 UV-I 807 W/m 12,8 C 26,8 C 17,7 km/h (3 Bft)
17.06.2013 11:55 26,6 C 42 % 1014,5 hPa 0,0 l/m 9,7 km/h (2 Bft) O-NO 59 5 min 0,000 mm 5,9 UV-I 842 W/m 12,6 C 26,0 C 19,3 km/h (3 Bft)
17.06.2013 12:00 26,6 C 43 % 1014,4 hPa 0,0 l/m 8,2 km/h (2 Bft) O-NO 62 5 min 0,000 mm 5,9 UV-I 478 W/m 13,0 C 26,2 C 16,1 km/h (3 Bft)
17.06.2013 12:05 27,0 C 43 % 1014,2 hPa 0,0 l/m 8,4 km/h (2 Bft) N 5 5 min 0,559 mm 6,0 UV-I 833 W/m 13,3 C 26,6 C 16,1 km/h (3 Bft)
17.06.2013 12:10 27,0 C 43 % 1014,1 hPa 0,0 l/m 6,5 km/h (2 Bft) N-NO 22 5 min 0,000 mm 6,0 UV-I 791 W/m 13,3 C 27,0 C 12,9 km/h (3 Bft)
17.06.2013 12:15 27,3 C 43 % 1014,0 hPa 0,0 l/m 7,7 km/h (2 Bft) O 84 5 min 0,000 mm 6,3 UV-I 874 W/m 13,6 C 27,1 C 14,5 km/h (3 Bft)
17.06.2013 12:20 25,9 C 46 % 1013,9 hPa 0,0 l/m 7,5 km/h (2 Bft) NO 53 5 min 0,000 mm 6,2 UV-I 863 W/m 13,4 C 25,7 C 17,7 km/h (3 Bft)
17.06.2013 12:25 26,9 C 45 % 1013,8 hPa 0,0 l/m 8,6 km/h (2 Bft) N-NO 28 5 min 0,000 mm 6,3 UV-I 898 W/m 13,9 C 26,5 C 19,3 km/h (3 Bft)
17.06.2013 12:30 27,4 C 44 % 1013,7 hPa 0,0 l/m 7,4 km/h (2 Bft) O-NO 70 5 min 0,000 mm 6,6 UV-I 944 W/m 14,0 C 27,2 C 17,7 km/h (3 Bft)
17.06.2013 12:35 26,6 C 43 % 1013,6 hPa 0,0 l/m 9,8 km/h (2 Bft) O 92 5 min 0,000 mm 6,1 UV-I 846 W/m 13,0 C 26,0 C 17,7 km/h (3 Bft)
17.06.2013 12:40 26,4 C 43 % 1013,6 hPa 0,0 l/m 9,9 km/h (2 Bft) N-NW 328 5 min 0,000 mm 6,3 UV-I 828 W/m 12,8 C 25,7 C 20,9 km/h (4 Bft)
17.06.2013 12:45 26,6 C 44 % 1013,6 hPa 0,0 l/m 9,0 km/h (2 Bft) O 94 5 min 0,000 mm 6,3 UV-I 870 W/m 13,3 C 26,1 C 16,1 km/h (3 Bft)
17.06.2013 12:50 26,8 C 43 % 1013,6 hPa 0,0 l/m 11,1 km/h (2 Bft) N-NO 18 5 min 0,000 mm 6,5 UV-I 907 W/m 13,2 C 26,0 C 17,7 km/h (3 Bft)
17.06.2013 12:55 27,4 C 43 % 1013,6 hPa 0,0 l/m 9,7 km/h (2 Bft) O 79 5 min 0,000 mm 6,3 UV-I 849 W/m 13,7 C 26,9 C 20,9 km/h (4 Bft)
17.06.2013 13:00 26,6 C 46 % 1013,6 hPa 0,0 l/m 9,5 km/h (2 Bft) O-SO 117 5 min 0,000 mm 6,5 UV-I 872 W/m 14,0 C 26,0 C 17,7 km/h (3 Bft)
17.06.2013 13:05 26,5 C 46 % 1013,5 hPa 0,0 l/m 12,9 km/h (3 Bft) O-SO 103 5 min 0,635 mm 6,6 UV-I 909 W/m 13,9 C 25,4 C 22,5 km/h (4 Bft)
17.06.2013 13:10 27,1 C 45 % 1013,6 hPa 0,0 l/m 9,8 km/h (2 Bft) O-NO 60 5 min 0,000 mm 6,6 UV-I 889 W/m 14,1 C 26,5 C 14,5 km/h (3 Bft)
17.06.2013 13:15 27,7 C 44 % 1013,6 hPa 0,0 l/m 6,6 km/h (2 Bft) O-SO 111 5 min 0,000 mm 6,3 UV-I 847 W/m 14,3 C 27,7 C 14,5 km/h (3 Bft)
17.06.2013 13:20 26,9 C 46 % 1013,5 hPa 0,0 l/m 9,6 km/h (2 Bft) O 80 5 min 0,000 mm 6,6 UV-I 882 W/m 14,3 C 26,3 C 20,9 km/h (4 Bft)
17.06.2013 13:25 27,2 C 44 % 1013,5 hPa 0,0 l/m 10,1 km/h (2 Bft) O-NO 64 5 min 0,000 mm 6,8 UV-I 983 W/m 13,9 C 26,6 C 16,1 km/h (3 Bft)
17.06.2013 13:30 26,7 C 46 % 1013,6 hPa 0,0 l/m 10,6 km/h (2 Bft) O-SO 110 5 min 0,000 mm 6,7 UV-I 571 W/m 14,1 C 25,9 C 20,9 km/h (4 Bft)
17.06.2013 13:35 27,3 C 45 % 1013,5 hPa 0,0 l/m 11,5 km/h (2 Bft) O-NO 59 5 min 0,000 mm 6,3 UV-I 1071 W/m 14,3 C 26,5 C 19,3 km/h (3 Bft)
17.06.2013 13:40 27,2 C 46 % 1013,4 hPa 0,0 l/m 9,8 km/h (2 Bft) O 98 5 min 0,000 mm 5,6 UV-I 879 W/m 14,6 C 26,6 C 17,7 km/h (3 Bft)
17.06.2013 13:45 27,4 C 45 % 1013,4 hPa 0,0 l/m 10,1 km/h (2 Bft) O 101 5 min 0,000 mm 6,6 UV-I 963 W/m 14,4 C 26,8 C 17,7 km/h (3 Bft)
17.06.2013 13:50 27,0 C 47 % 1013,3 hPa 0,0 l/m 10,9 km/h (2 Bft) O-NO 58 5 min 0,000 mm 6,7 UV-I 967 W/m 14,7 C 26,2 C 17,7 km/h (3 Bft)
17.06.2013 13:55 27,1 C 48 % 1013,4 hPa 0,0 l/m 13,1 km/h (3 Bft) O-SO 106 5 min 0,000 mm 5,3 UV-I 854 W/m 15,1 C 26,1 C 20,9 km/h (4 Bft)
17.06.2013 14:00 26,4 C 49 % 1013,4 hPa 0,0 l/m 7,7 km/h (2 Bft) O 87 5 min 0,000 mm 5,0 UV-I 775 W/m 14,8 C 26,1 C 16,1 km/h (3 Bft)
17.06.2013 14:05 27,3 C 49 % 1013,3 hPa 0,0 l/m 5,9 km/h (2 Bft) O-NO 71 5 min 0,635 mm 4,8 UV-I 656 W/m 15,6 C 27,3 C 14,5 km/h (3 Bft)
17.06.2013 14:10 28,2 C 46 % 1013,2 hPa 0,0 l/m 9,6 km/h (2 Bft) O-NO 60 5 min 0,000 mm 4,5 UV-I 555 W/m 15,5 C 27,7 C 17,7 km/h (3 Bft)
17.06.2013 14:15 28,3 C 47 % 1013,2 hPa 0,0 l/m 9,1 km/h (2 Bft) O-NO 57 5 min 0,000 mm 5,1 UV-I 765 W/m 15,9 C 27,9 C 14,5 km/h (3 Bft)
17.06.2013 14:20 26,5 C 50 % 1013,1 hPa 0,0 l/m 11,1 km/h (2 Bft) O-NO 75 0 min 0,000 mm 3,4 UV-I 352 W/m 15,2 C 25,6 C 17,7 km/h (3 Bft)
17.06.2013 14:25 26,5 C 51 % 1013,0 hPa 0,0 l/m 8,6 km/h (2 Bft) SO 125 0 min 0,000 mm 5,6 UV-I 439 W/m 15,5 C 26,1 C 17,7 km/h (3 Bft)
17.06.2013 14:30 26,7 C 52 % 1013,0 hPa 0,0 l/m 10,3 km/h (2 Bft) NO 40 5 min 0,000 mm 6,0 UV-I 888 W/m 16,0 C 26,0 C 19,3 km/h (3 Bft)
17.06.2013 14:35 27,0 C 50 % 1012,9 hPa 0,0 l/m 10,5 km/h (2 Bft) O-SO 111 5 min 0,000 mm 6,1 UV-I 914 W/m 15,7 C 26,3 C 19,3 km/h (3 Bft)
17.06.2013 14:40 28,3 C 47 % 1012,9 hPa 0,0 l/m 8,0 km/h (2 Bft) O-NO 72 5 min 0,000 mm 5,1 UV-I 715 W/m 15,9 C 28,1 C 16,1 km/h (3 Bft)
17.06.2013 14:45 28,3 C 46 % 1012,9 hPa 0,0 l/m 12,1 km/h (2 Bft) NO 54 5 min 0,000 mm 5,8 UV-I 735 W/m 15,6 C 27,6 C 20,9 km/h (4 Bft)
17.06.2013 14:50 28,3 C 46 % 1012,8 hPa 0,0 l/m 9,6 km/h (2 Bft) NO 56 5 min 0,000 mm 4,5 UV-I 867 W/m 15,6 C 27,9 C 20,9 km/h (4 Bft)
17.06.2013 14:55 28,4 C 47 % 1012,7 hPa 0,0 l/m 6,2 km/h (2 Bft) NO 42 5 min 0,000 mm 5,9 UV-I 552 W/m 16,0 C 28,4 C 12,9 km/h (3 Bft)
17.06.2013 15:00 28,7 C 47 % 1012,6 hPa 0,0 l/m 10,1 km/h (2 Bft) O 89 5 min 0,000 mm 5,2 UV-I 849 W/m 16,3 C 28,2 C 20,9 km/h (4 Bft)
17.06.2013 15:05 28,1 C 48 % 1012,5 hPa 0,0 l/m 5,9 km/h (2 Bft) O-NO 69 5 min 0,559 mm 3,4 UV-I 763 W/m 16,0 C 28,1 C 12,9 km/h (3 Bft)
17.06.2013 15:10 27,5 C 50 % 1012,5 hPa 0,0 l/m 11,4 km/h (2 Bft) O-NO 57 5 min 0,000 mm 5,2 UV-I 789 W/m 16,1 C 26,7 C 22,5 km/h (4 Bft)
17.06.2013 15:15 28,0 C 50 % 1012,4 hPa 0,0 l/m 8,6 km/h (2 Bft) O-NO 67 5 min 0,000 mm 3,9 UV-I 819 W/m 16,6 C 27,7 C 17,7 km/h (3 Bft)
17.06.2013 15:20 28,7 C 46 % 1012,4 hPa 0,0 l/m 8,1 km/h (2 Bft) O-NO 59 5 min 0,000 mm 3,4 UV-I 585 W/m 15,9 C 28,5 C 14,5 km/h (3 Bft)
17.06.2013 15:25 29,0 C 47 % 1012,4 hPa 0,0 l/m 7,8 km/h (2 Bft) O 94 5 min 0,000 mm 3,4 UV-I 568 W/m 16,5 C 28,8 C 14,5 km/h (3 Bft)
17.06.2013 15:30 27,9 C 47 % 1012,5 hPa 0,0 l/m 7,9 km/h (2 Bft) O 84 5 min 0,000 mm 3,0 UV-I 452 W/m 15,5 C 27,7 C 12,9 km/h (3 Bft)
17.06.2013 15:35 28,3 C 49 % 1012,5 hPa 0,0 l/m 6,6 km/h (2 Bft) NO 51 0 min 0,000 mm 2,8 UV-I 397 W/m 16,5 C 28,3 C 16,1 km/h (3 Bft)
17.06.2013 15:40 28,8 C 48 % 1012,5 hPa 0,0 l/m 6,4 km/h (2 Bft) O-NO 63 0 min 0,000 mm 3,0 UV-I 411 W/m 16,7 C 28,8 C 16,1 km/h (3 Bft)
17.06.2013 15:45 28,4 C 48 % 1012,6 hPa 0,0 l/m 6,5 km/h (2 Bft) O-NO 61 0 min 0,000 mm 2,8 UV-I 403 W/m 16,3 C 28,4 C 12,9 km/h (3 Bft)
17.06.2013 15:50 28,3 C 49 % 1012,6 hPa 0,0 l/m 4,9 km/h (1 Bft) NO 42 0 min 0,000 mm 2,9 UV-I 415 W/m 16,5 C 28,3 C 11,3 km/h (2 Bft)
17.06.2013 15:55 28,8 C 49 % 1012,6 hPa 0,0 l/m 4,1 km/h (1 Bft) O-NO 57 0 min 0,000 mm 4,8 UV-I 385 W/m 17,0 C 28,8 C 11,3 km/h (2 Bft)
17.06.2013 16:00 30,0 C 47 % 1012,6 hPa 0,0 l/m 2,3 km/h (1 Bft) O-NO 58 5 min 0,000 mm 4,7 UV-I 995 W/m 17,4 C 30,0 C 9,7 km/h (2 Bft)
17.06.2013 16:05 30,1 C 46 % 1012,5 hPa 0,0 l/m 6,3 km/h (2 Bft) N-NO 17 5 min 0,431 mm 4,3 UV-I 891 W/m 17,2 C 30,1 C 16,1 km/h (3 Bft)
17.06.2013 16:10 30,2 C 45 % 1012,4 hPa 0,0 l/m 5,0 km/h (1 Bft) O-NO 65 5 min 0,000 mm 4,2 UV-I 773 W/m 16,9 C 30,2 C 17,7 km/h (3 Bft)
17.06.2013 16:15 29,9 C 47 % 1012,4 hPa 0,0 l/m 3,5 km/h (1 Bft) O-SO 110 5 min 0,000 mm 4,0 UV-I 751 W/m 17,3 C 29,9 C 16,1 km/h (3 Bft)
17.06.2013 16:20 30,4 C 44 % 1012,4 hPa 0,0 l/m 5,1 km/h (1 Bft) O-NO 62 5 min 0,000 mm 3,9 UV-I 744 W/m 16,7 C 30,4 C 14,5 km/h (3 Bft)
17.06.2013 16:25 30,1 C 46 % 1012,4 hPa 0,0 l/m 4,4 km/h (1 Bft) NW 321 5 min 0,000 mm 3,7 UV-I 724 W/m 17,2 C 30,1 C 14,5 km/h (3 Bft)
17.06.2013 16:30 29,0 C 46 % 1012,3 hPa 0,0 l/m 8,9 km/h (2 Bft) O-NO 57 5 min 0,000 mm 3,5 UV-I 693 W/m 16,2 C 28,7 C 19,3 km/h (3 Bft)
17.06.2013 16:35 28,9 C 47 % 1012,3 hPa 0,0 l/m 8,1 km/h (2 Bft) O-NO 58 5 min 0,000 mm 3,2 UV-I 638 W/m 16,4 C 28,7 C 14,5 km/h (3 Bft)
17.06.2013 16:40 28,2 C 49 % 1012,2 hPa 0,0 l/m 8,8 km/h (2 Bft) O-SO 113 5 min 0,000 mm 3,3 UV-I 682 W/m 16,5 C 27,9 C 16,1 km/h (3 Bft)
17.06.2013 16:45 28,7 C 49 % 1012,0 hPa 0,0 l/m 7,9 km/h (2 Bft) NO 55 5 min 0,000 mm 3,0 UV-I 601 W/m 16,9 C 28,5 C 14,5 km/h (3 Bft)
17.06.2013 16:50 29,5 C 47 % 1012,1 hPa 0,0 l/m 8,3 km/h (2 Bft) NO 42 5 min 0,000 mm 2,8 UV-I 513 W/m 17,0 C 29,3 C 14,5 km/h (3 Bft)
17.06.2013 16:55 29,3 C 48 % 1012,0 hPa 0,0 l/m 5,0 km/h (1 Bft) O-NO 62 5 min 0,000 mm 2,8 UV-I 596 W/m 17,1 C 29,3 C 17,7 km/h (3 Bft)
17.06.2013 17:00 29,3 C 48 % 1012,1 hPa 0,0 l/m 7,2 km/h (2 Bft) N-NO 31 5 min 0,000 mm 2,6 UV-I 552 W/m 17,1 C 29,2 C 14,5 km/h (3 Bft)
17.06.2013 17:05 29,7 C 48 % 1012,1 hPa 0,0 l/m 5,3 km/h (1 Bft) NO 46 5 min 0,508 mm 2,5 UV-I 534 W/m 17,5 C 29,7 C 12,9 km/h (3 Bft)
17.06.2013 17:10 29,4 C 48 % 1012,2 hPa 0,0 l/m 5,9 km/h (2 Bft) O-NO 66 5 min 0,000 mm 2,5 UV-I 547 W/m 17,2 C 29,4 C 12,9 km/h (3 Bft)
17.06.2013 17:15 28,9 C 48 % 1012,1 hPa 0,0 l/m 9,4 km/h (2 Bft) O-NO 65 5 min 0,000 mm 2,5 UV-I 585 W/m 16,8 C 28,5 C 19,3 km/h (3 Bft)
17.06.2013 17:20 29,1 C 49 % 1012,0 hPa 0,0 l/m 6,4 km/h (2 Bft) NO 44 5 min 0,000 mm 2,4 UV-I 578 W/m 17,3 C 29,1 C 14,5 km/h (3 Bft)
17.06.2013 17:25 29,5 C 48 % 1012,0 hPa 0,0 l/m 4,6 km/h (1 Bft) O-NO 61 5 min 0,000 mm 2,3 UV-I 566 W/m 17,3 C 29,5 C 11,3 km/h (2 Bft)
17.06.2013 17:30 29,3 C 49 % 1011,9 hPa 0,0 l/m 4,3 km/h (1 Bft) NO 55 5 min 0,000 mm 2,2 UV-I 552 W/m 17,5 C 29,3 C 11,3 km/h (2 Bft)
17.06.2013 17:35 29,4 C 49 % 1011,9 hPa 0,0 l/m 4,6 km/h (1 Bft) O-NO 58 5 min 0,000 mm 2,1 UV-I 540 W/m 17,5 C 29,4 C 12,9 km/h (3 Bft)
17.06.2013 17:40 29,8 C 49 % 1011,9 hPa 0,0 l/m 3,7 km/h (1 Bft) O-NO 61 5 min 0,000 mm 1,9 UV-I 520 W/m 17,9 C 29,8 C 9,7 km/h (2 Bft)
17.06.2013 17:45 29,6 C 48 % 1011,9 hPa 0,0 l/m 3,2 km/h (1 Bft) N-NO 24 5 min 0,000 mm 1,8 UV-I 492 W/m 17,4 C 29,6 C 11,3 km/h (2 Bft)
17.06.2013 17:50 30,2 C 48 % 1011,8 hPa 0,0 l/m 1,2 km/h (1 Bft) NO 44 5 min 0,000 mm 1,7 UV-I 496 W/m 17,9 C 30,2 C 4,8 km/h (1 Bft)
17.06.2013 17:55 30,3 C 47 % 1011,8 hPa 0,0 l/m 0,9 km/h (0 Bft) O 82 5 min 0,000 mm 1,6 UV-I 489 W/m 17,7 C 30,3 C 8,0 km/h (2 Bft)
17.06.2013 18:00 29,8 C 47 % 1011,6 hPa 0,0 l/m 3,4 km/h (1 Bft) NO 34 5 min 0,000 mm 1,6 UV-I 482 W/m 17,2 C 29,8 C 12,9 km/h (3 Bft)
17.06.2013 18:05 29,7 C 49 % 1011,6 hPa 0,0 l/m 1,1 km/h (1 Bft) O-NO 62 5 min 0,381 mm 1,4 UV-I 450 W/m 17,8 C 29,7 C 6,4 km/h (2 Bft)
17.06.2013 18:10 29,7 C 48 % 1011,6 hPa 0,0 l/m 4,1 km/h (1 Bft) O-NO 62 5 min 0,000 mm 1,2 UV-I 462 W/m 17,5 C 29,7 C 14,5 km/h (3 Bft)
17.06.2013 18:15 29,3 C 51 % 1011,6 hPa 0,0 l/m 3,2 km/h (1 Bft) O-NO 73 5 min 0,000 mm 1,3 UV-I 454 W/m 18,1 C 29,3 C 14,5 km/h (3 Bft)
17.06.2013 18:20 28,8 C 50 % 1011,5 hPa 0,0 l/m 7,3 km/h (2 Bft) NO 44 5 min 0,000 mm 1,2 UV-I 406 W/m 17,3 C 28,7 C 16,1 km/h (3 Bft)
17.06.2013 18:25 28,5 C 50 % 1011,4 hPa 0,0 l/m 6,8 km/h (2 Bft) NO 56 5 min 0,000 mm 1,2 UV-I 424 W/m 17,0 C 28,4 C 19,3 km/h (3 Bft)
17.06.2013 18:30 28,0 C 51 % 1011,4 hPa 0,0 l/m 6,5 km/h (2 Bft) NO 55 0 min 0,000 mm 1,0 UV-I 185 W/m 16,9 C 28,0 C 14,5 km/h (3 Bft)
17.06.2013 18:35 27,8 C 53 % 1011,3 hPa 0,0 l/m 5,1 km/h (1 Bft) NO 53 5 min 0,000 mm 1,0 UV-I 418 W/m 17,3 C 27,8 C 11,3 km/h (2 Bft)
17.06.2013 18:40 27,6 C 53 % 1011,3 hPa 0,0 l/m 7,4 km/h (2 Bft) NO 56 0 min 0,000 mm 0,8 UV-I 123 W/m 17,1 C 27,4 C 14,5 km/h (3 Bft)
17.06.2013 18:45 27,3 C 53 % 1011,2 hPa 0,0 l/m 6,8 km/h (2 Bft) NO 50 0 min 0,000 mm 0,7 UV-I 114 W/m 16,9 C 27,2 C 12,9 km/h (3 Bft)
17.06.2013 18:50 26,9 C 54 % 1011,2 hPa 0,0 l/m 7,2 km/h (2 Bft) N-NO 33 0 min 0,000 mm 0,6 UV-I 158 W/m 16,8 C 26,7 C 12,9 km/h (3 Bft)
17.06.2013 18:55 26,8 C 55 % 1011,2 hPa 0,0 l/m 5,3 km/h (1 Bft) NO 55 0 min 0,000 mm 0,7 UV-I 183 W/m 17,0 C 26,8 C 16,1 km/h (3 Bft)
17.06.2013 19:00 26,9 C 55 % 1011,2 hPa 0,0 l/m 3,6 km/h (1 Bft) O-NO 66 5 min 0,000 mm 0,7 UV-I 357 W/m 17,1 C 26,9 C 11,3 km/h (2 Bft)
17.06.2013 19:05 26,9 C 55 % 1011,1 hPa 0,0 l/m 6,8 km/h (2 Bft) O-NO 61 0 min 0,254 mm 0,6 UV-I 134 W/m 17,1 C 26,8 C 12,9 km/h (3 Bft)
17.06.2013 19:10 26,9 C 56 % 1011,2 hPa 0,0 l/m 4,0 km/h (1 Bft) NO 48 0 min 0,000 mm 0,5 UV-I 72 W/m 17,4 C 26,9 C 12,9 km/h (3 Bft)
17.06.2013 19:15 26,9 C 56 % 1011,2 hPa 0,0 l/m 3,7 km/h (1 Bft) O-NO 65 0 min 0,000 mm 0,5 UV-I 76 W/m 17,4 C 26,9 C 8,0 km/h (2 Bft)
17.06.2013 19:20 26,8 C 57 % 1011,1 hPa 0,0 l/m 2,1 km/h (1 Bft) O-NO 60 0 min 0,000 mm 0,5 UV-I 171 W/m 17,6 C 26,8 C 8,0 km/h (2 Bft)
17.06.2013 19:25 26,8 C 57 % 1011,1 hPa 0,0 l/m 2,4 km/h (1 Bft) O-NO 69 5 min 0,000 mm 0,5 UV-I 255 W/m 17,6 C 26,8 C 6,4 km/h (2 Bft)
17.06.2013 19:30 26,7 C 57 % 1011,1 hPa 0,0 l/m 5,5 km/h (1 Bft) NO 53 0 min 0,000 mm 0,0 UV-I 70 W/m 17,5 C 26,7 C 12,9 km/h (3 Bft)
17.06.2013 19:35 26,4 C 57 % 1011,2 hPa 0,0 l/m 4,2 km/h (1 Bft) NO 45 0 min 0,000 mm 0,0 UV-I 70 W/m 17,2 C 26,4 C 8,0 km/h (2 Bft)
17.06.2013 19:40 26,3 C 58 % 1011,1 hPa 0,0 l/m 2,9 km/h (1 Bft) O-NO 57 0 min 0,000 mm 0,0 UV-I 67 W/m 17,4 C 26,3 C 8,0 km/h (2 Bft)
17.06.2013 19:45 26,2 C 58 % 1011,3 hPa 0,0 l/m 2,2 km/h (1 Bft) O-NO 59 0 min 0,000 mm 0,0 UV-I 58 W/m 17,3 C 26,2 C 4,8 km/h (1 Bft)
17.06.2013 19:50 26,1 C 58 % 1011,2 hPa 0,0 l/m 2,5 km/h (1 Bft) NO 51 5 min 0,000 mm 0,0 UV-I 163 W/m 17,2 C 26,1 C 6,4 km/h (2 Bft)
17.06.2013 19:55 26,0 C 59 % 1011,1 hPa 0,0 l/m 4,2 km/h (1 Bft) NO 53 5 min 0,000 mm 0,0 UV-I 171 W/m 17,4 C 26,0 C 9,7 km/h (2 Bft)
17.06.2013 20:00 25,9 C 59 % 1011,1 hPa 0,0 l/m 3,7 km/h (1 Bft) O-NO 67 0 min 0,000 mm 0,0 UV-I 114 W/m 17,3 C 25,9 C 8,0 km/h (2 Bft)
17.06.2013 20:05 26,0 C 60 % 1011,2 hPa 0,0 l/m 1,0 km/h (0 Bft) O-NO 67 5 min 0,127 mm 0,0 UV-I 163 W/m 17,6 C 26,0 C 4,8 km/h (1 Bft)
17.06.2013 20:10 26,1 C 60 % 1011,1 hPa 0,0 l/m 3,2 km/h (1 Bft) O-NO 67 0 min 0,000 mm 0,0 UV-I 84 W/m 17,7 C 26,1 C 8,0 km/h (2 Bft)
17.06.2013 20:15 25,9 C 61 % 1011,0 hPa 0,0 l/m 3,1 km/h (1 Bft) NO 51 5 min 0,000 mm 0,0 UV-I 144 W/m 17,8 C 25,9 C 6,4 km/h (2 Bft)
17.06.2013 20:20 25,9 C 61 % 1011,1 hPa 0,0 l/m 2,5 km/h (1 Bft) O-NO 67 5 min 0,000 mm 0,0 UV-I 127 W/m 17,8 C 25,9 C 6,4 km/h (2 Bft)
17.06.2013 20:25 25,8 C 62 % 1011,2 hPa 0,0 l/m 4,4 km/h (1 Bft) NO 54 0 min 0,000 mm 0,0 UV-I 83 W/m 18,0 C 25,8 C 9,7 km/h (2 Bft)
17.06.2013 20:30 25,7 C 62 % 1011,2 hPa 0,0 l/m 3,5 km/h (1 Bft) NO 48 5 min 0,000 mm 0,0 UV-I 93 W/m 17,9 C 25,7 C 6,4 km/h (2 Bft)
17.06.2013 20:35 25,6 C 62 % 1011,2 hPa 0,0 l/m 4,3 km/h (1 Bft) NO 55 0 min 0,000 mm 0,0 UV-I 65 W/m 17,8 C 25,6 C 6,4 km/h (2 Bft)
17.06.2013 20:40 25,5 C 63 % 1011,1 hPa 0,0 l/m 4,3 km/h (1 Bft) NO 36 0 min 0,000 mm 0,0 UV-I 51 W/m 17,9 C 25,5 C 11,3 km/h (2 Bft)
17.06.2013 20:45 25,3 C 63 % 1011,1 hPa 0,0 l/m 4,1 km/h (1 Bft) O-NO 62 0 min 0,000 mm 0,0 UV-I 42 W/m 17,7 C 25,3 C 9,7 km/h (2 Bft)
17.06.2013 20:50 25,2 C 63 % 1011,0 hPa 0,0 l/m 3,1 km/h (1 Bft) NO 47 0 min 0,000 mm 0,0 UV-I 39 W/m 17,6 C 25,2 C 6,4 km/h (2 Bft)
17.06.2013 20:55 25,1 C 63 % 1011,1 hPa 0,0 l/m 3,4 km/h (1 Bft) NO 48 0 min 0,000 mm 0,0 UV-I 30 W/m 17,5 C 25,1 C 6,4 km/h (2 Bft)
17.06.2013 21:00 24,9 C 64 % 1011,2 hPa 0,0 l/m 1,6 km/h (1 Bft) O-NO 58 0 min 0,000 mm 0,0 UV-I 26 W/m 17,6 C 24,9 C 4,8 km/h (1 Bft)
17.06.2013 21:05 24,8 C 64 % 1011,2 hPa 0,0 l/m 0,8 km/h (0 Bft) NO 38 0 min 0,077 mm 0,0 UV-I 23 W/m 17,5 C 24,8 C 4,8 km/h (1 Bft)
17.06.2013 21:10 24,6 C 65 % 1011,2 hPa 0,0 l/m 1,6 km/h (1 Bft) NO 42 0 min 0,000 mm 0,0 UV-I 21 W/m 17,6 C 24,6 C 4,8 km/h (1 Bft)
17.06.2013 21:15 24,4 C 65 % 1011,2 hPa 0,0 l/m 0,1 km/h (0 Bft) NO 42 0 min 0,000 mm 0,0 UV-I 16 W/m 17,4 C 24,4 C 1,6 km/h (1 Bft)
17.06.2013 21:20 24,4 C 66 % 1011,3 hPa 0,0 l/m 0,0 km/h (0 Bft) NO 42 0 min 0,000 mm 0,0 UV-I 14 W/m 17,6 C 24,4 C 0,0 km/h (0 Bft)
17.06.2013 21:25 24,3 C 67 % 1011,3 hPa 0,0 l/m 0,0 km/h (0 Bft) NO 42 5 min 0,000 mm 0,0 UV-I 12 W/m 17,8 C 24,3 C 1,6 km/h (1 Bft)
17.06.2013 21:30 24,2 C 66 % 1011,4 hPa 0,0 l/m 0,0 km/h (0 Bft) NO 42 0 min 0,000 mm 0,0 UV-I 9 W/m 17,4 C 24,2 C 0,0 km/h (0 Bft)
17.06.2013 21:35 24,1 C 66 % 1011,4 hPa 0,0 l/m 0,0 km/h (0 Bft) NO 42 0 min 0,000 mm 0,0 UV-I 5 W/m 17,3 C 24,1 C 0,0 km/h (0 Bft)
17.06.2013 21:40 23,9 C 67 % 1011,4 hPa 0,0 l/m 0,1 km/h (0 Bft) NO 42 0 min 0,000 mm 0,0 UV-I 0 W/m 17,4 C 23,9 C 1,6 km/h (1 Bft)
17.06.2013 21:45 23,7 C 67 % 1011,5 hPa 0,0 l/m 0,2 km/h (0 Bft) NO 42 0 min 0,000 mm 0,0 UV-I 0 W/m 17,2 C 23,7 C 3,2 km/h (1 Bft)
17.06.2013 21:50 23,6 C 68 % 1011,6 hPa 0,0 l/m 0,0 km/h (0 Bft) NO 42 0 min 0,000 mm 0,0 UV-I 0 W/m 17,3 C 23,6 C 0,0 km/h (0 Bft)
17.06.2013 21:55 23,4 C 68 % 1011,7 hPa 0,0 l/m 0,2 km/h (0 Bft) NO 42 0 min 0,000 mm 0,0 UV-I 0 W/m 17,1 C 23,4 C 3,2 km/h (1 Bft)
17.06.2013 22:00 23,2 C 69 % 1011,7 hPa 0,0 l/m 0,0 km/h (0 Bft) NO 42 0 min 0,000 mm 0,0 UV-I 0 W/m 17,2 C 23,2 C 0,0 km/h (0 Bft)
17.06.2013 22:05 23,1 C 69 % 1011,8 hPa 0,0 l/m 0,0 km/h (0 Bft) NO 42 0 min 0,025 mm 0,0 UV-I 0 W/m 17,1 C 23,1 C 1,6 km/h (1 Bft)
17.06.2013 22:10 22,8 C 70 % 1011,8 hPa 0,0 l/m 0,1 km/h (0 Bft) NO 42 0 min 0,000 mm 0,0 UV-I 0 W/m 17,0 C 22,8 C 1,6 km/h (1 Bft)
17.06.2013 22:15 22,5 C 71 % 1011,9 hPa 0,0 l/m 0,1 km/h (0 Bft) NO 42 0 min 0,000 mm 0,0 UV-I 0 W/m 17,0 C 22,5 C 1,6 km/h (1 Bft)
17.06.2013 22:20 22,3 C 72 % 1011,9 hPa 0,0 l/m 0,0 km/h (0 Bft) NO 42 0 min 0,000 mm 0,0 UV-I 0 W/m 17,0 C 22,3 C 1,6 km/h (1 Bft)
17.06.2013 22:25 22,2 C 73 % 1012,0 hPa 0,0 l/m 0,2 km/h (0 Bft) NO 42 0 min 0,000 mm 0,0 UV-I 0 W/m 17,1 C 22,2 C 3,2 km/h (1 Bft)
17.06.2013 22:30 22,1 C 73 % 1012,0 hPa 0,0 l/m 0,0 km/h (0 Bft) NO 42 0 min 0,000 mm 0,0 UV-I 0 W/m 17,0 C 22,1 C 1,6 km/h (1 Bft)
17.06.2013 22:35 21,9 C 73 % 1012,0 hPa 0,0 l/m 0,0 km/h (0 Bft) NO 42 0 min 0,000 mm 0,0 UV-I 0 W/m 16,8 C 21,9 C 0,0 km/h (0 Bft)
17.06.2013 22:40 21,8 C 74 % 1012,2 hPa 0,0 l/m 0,0 km/h (0 Bft) NO 42 0 min 0,000 mm 0,0 UV-I 0 W/m 17,0 C 21,8 C 0,0 km/h (0 Bft)
17.06.2013 22:45 21,7 C 74 % 1012,2 hPa 0,0 l/m 0,0 km/h (0 Bft) NO 42 0 min 0,000 mm 0,0 UV-I 0 W/m 16,9 C 21,7 C 0,0 km/h (0 Bft)
17.06.2013 22:50 21,6 C 75 % 1012,3 hPa 0,0 l/m 0,0 km/h (0 Bft) NO 42 0 min 0,000 mm 0,0 UV-I 0 W/m 17,0 C 21,6 C 0,0 km/h (0 Bft)
17.06.2013 22:55 21,3 C 76 % 1012,4 hPa 0,0 l/m 0,2 km/h (0 Bft) N-NO 19 0 min 0,000 mm 0,0 UV-I 0 W/m 16,9 C 21,3 C 3,2 km/h (1 Bft)
17.06.2013 23:00 21,0 C 78 % 1012,5 hPa 0,0 l/m 0,1 km/h (0 Bft) N 350 0 min 0,000 mm 0,0 UV-I 0 W/m 17,0 C 21,0 C 1,6 km/h (1 Bft)
17.06.2013 23:05 20,8 C 79 % 1012,5 hPa 0,0 l/m 0,1 km/h (0 Bft) N-NW 338 0 min 0,025 mm 0,0 UV-I 0 W/m 17,0 C 20,8 C 1,6 km/h (1 Bft)
17.06.2013 23:10 20,7 C 79 % 1012,5 hPa 0,0 l/m 0,6 km/h (0 Bft) N-NW 338 0 min 0,000 mm 0,0 UV-I 0 W/m 16,9 C 20,7 C 3,2 km/h (1 Bft)
17.06.2013 23:15 20,6 C 79 % 1012,5 hPa 0,0 l/m 0,0 km/h (0 Bft) N-NW 338 0 min 0,000 mm 0,0 UV-I 0 W/m 16,8 C 20,6 C 1,6 km/h (1 Bft)
17.06.2013 23:20 20,6 C 78 % 1012,5 hPa 0,0 l/m 0,0 km/h (0 Bft) N-NW 338 0 min 0,000 mm 0,0 UV-I 0 W/m 16,6 C 20,6 C 0,0 km/h (0 Bft)
17.06.2013 23:25 20,5 C 79 % 1012,5 hPa 0,0 l/m 0,0 km/h (0 Bft) N-NW 338 0 min 0,000 mm 0,0 UV-I 0 W/m 16,7 C 20,5 C 0,0 km/h (0 Bft)
17.06.2013 23:30 20,4 C 79 % 1012,5 hPa 0,0 l/m 0,0 km/h (0 Bft) N-NW 338 0 min 0,000 mm 0,0 UV-I 0 W/m 16,6 C 20,4 C 0,0 km/h (0 Bft)
17.06.2013 23:35 20,3 C 79 % 1012,5 hPa 0,0 l/m 0,0 km/h (0 Bft) N-NW 338 0 min 0,000 mm 0,0 UV-I 0 W/m 16,5 C 20,3 C 0,0 km/h (0 Bft)
17.06.2013 23:40 20,2 C 79 % 1012,5 hPa 0,0 l/m 0,0 km/h (0 Bft) N-NW 338 0 min 0,000 mm 0,0 UV-I 0 W/m 16,4 C 20,2 C 0,0 km/h (0 Bft)
17.06.2013 23:45 20,2 C 79 % 1012,5 hPa 0,0 l/m 0,0 km/h (0 Bft) N-NW 338 0 min 0,000 mm 0,0 UV-I 0 W/m 16,4 C 20,2 C 0,0 km/h (0 Bft)
17.06.2013 23:50 20,1 C 80 % 1012,5 hPa 0,0 l/m 0,0 km/h (0 Bft) N-NW 338 0 min 0,000 mm 0,0 UV-I 0 W/m 16,5 C 20,1 C 0,0 km/h (0 Bft)
17.06.2013 23:55 20,0 C 80 % 1012,4 hPa 0,0 l/m 0,0 km/h (0 Bft) N-NW 338 0 min 0,000 mm 0,0 UV-I 0 W/m 16,4 C 20,0 C 0,0 km/h (0 Bft)
_ Min-Zeit 05:35 11:50 20:15 - 00:00 - - - - - - 05:35 05:35 00:00
Minimum _ 9,1 C 42 % 1011,0 hPa - 0,0 km/h (0 Bft) - - - - - - 7,7 C 9,1 C 0,0 km/h (0 Bft)
_ Max-Zeit 16:20 05:40 02:30 00:00 13:55 - - 10:25 13:05 13:25 13:35 18:15 16:20 13:05
Maximum _ 30,4 C 92 % 1016,1 hPa 0,0 l/m 13,1 km/h
O-SO (3 Bft)
- - 10 min 0,635 mm 6,8 UV-I 1071 W/m 18,1 C 30,4 C 22,5 km/h
O-NO (4 Bft)
Durchschnitt _ 20,4 C 66 % 1013,8 hPa #0,0 l/m 3,4 km/h (1 Bft) O-NO - #11:40 h #5,359 mm 3,4 UV-I 447 W/m 13,2 C 20,2 C 7,6 km/h (2 Bft)